Location: Le Domaine
(47.0333°N, 76.5361°W)
Time: 22:46:53
(UTC-05:00)

SR - All Passes

Search period start: 20 November 2019 00:00
Search period end: 30 November 2019 00:00
Orbit: 573 x 882 km, 66.7° (Epoch: 20 November)

Date Brightness Start Highest point End Pass type
(mag) Time Alt. Az. Time Alt. Az. Time Alt. Az.
20 Nov - 00:06:56 10° NW 00:12:24 39° WSW 00:17:40 10° S night (unlit)
20 Nov - 13:00:13 10° SE 13:02:55 14° ESE 13:05:42 10° ENE daylight
20 Nov - 14:38:42 10° SSW 14:44:02 83° ESE 14:49:51 10° NE daylight
20 Nov - 16:22:22 10° W 16:26:55 25° NW 16:31:41 10° NNE daylight
20 Nov - 18:09:17 10° NNW 18:11:14 12° N 18:13:11 10° N visible
20 Nov - 19:53:37 10° N 19:56:07 13° NNE 19:58:38 10° NE visible
20 Nov - 21:35:04 10° NNW 21:40:15 30° NE 21:45:21 10° E visible
20 Nov - 23:16:59 10° NW 23:22:55 70° WSW 23:28:37 10° SSE night (unlit)
21 Nov - 01:01:48 10° W 01:03:57 12° W 01:06:04 10° WSW night (unlit)
21 Nov - 13:49:26 10° S 13:54:30 46° ESE 13:59:58 10° NE daylight
21 Nov - 15:31:42 10° WSW 15:36:47 37° NW 15:42:11 10° NNE daylight
21 Nov - 17:17:42 10° NW 17:20:40 14° NNW 17:23:41 10° NNE visible
21 Nov - 19:03:59 10° N 19:05:30 11° N 19:07:02 10° NNE visible
21 Nov - 20:45:36 10° NNW 20:50:02 21° NNE 20:54:25 10° E visible
21 Nov - 22:27:16 10° NNW 22:33:14 71° NE 22:38:59 10° SE night (unlit)
22 Nov - 00:10:18 10° WNW 00:14:49 23° WSW 00:19:12 10° SSW night (unlit)
22 Nov - 13:00:52 10° SSE 13:05:10 25° ESE 13:09:45 10° NE daylight
22 Nov - 14:41:29 10° SW 14:46:50 61° NW 14:52:37 10° NNE daylight
22 Nov - 16:26:20 10° WNW 16:30:13 19° NNW 16:34:14 10° NNE daylight
22 Nov - 18:13:35 10° NNW 18:14:51 11° N 18:16:08 10° N visible
22 Nov - 19:56:10 10° NNW 19:59:38 16° NNE 20:03:06 10° ENE visible
22 Nov - 21:37:40 10° NNW 21:43:21 44° NE 21:48:53 10° ESE visible
22 Nov - 23:19:58 10° NW 23:25:30 41° WSW 23:30:49 10° S night (unlit)
23 Nov - 12:13:33 10° SE 12:16:02 13° E 12:18:36 10° ENE daylight
23 Nov - 13:51:45 10° SSW 13:57:06 80° ESE 14:02:56 10° NE daylight
23 Nov - 15:35:18 10° W 15:39:56 26° NW 15:44:48 10° NNE daylight
23 Nov - 17:22:09 10° NNW 17:24:13 12° NNW 17:26:18 10° N visible
23 Nov - 19:06:42 10° N 19:09:07 12° NNE 19:11:32 10° NE visible
23 Nov - 20:48:10 10° NNW 20:53:17 29° NE 20:58:19 10° E visible
23 Nov - 22:30:04 10° NW 22:36:00 73° WSW 22:41:42 10° SSE night (unlit)
24 Nov - 00:14:36 10° WNW 00:17:05 13° W 00:19:31 10° SW night (unlit)
24 Nov - 13:02:33 10° S 13:07:35 44° ESE 13:13:02 10° NE daylight
24 Nov - 14:44:41 10° WSW 14:49:49 39° NW 14:55:17 10° NNE daylight
24 Nov - 16:30:34 10° NW 16:33:39 14° NNW 16:36:47 10° NNE daylight
24 Nov - 18:17:00 10° N 18:18:29 11° N 18:19:58 10° NNE visible
24 Nov - 19:58:42 10° NNW 20:03:03 20° NNE 20:07:20 10° ENE visible
24 Nov - 21:40:21 10° NNW 21:46:19 68° NE 21:52:02 10° SE visible
24 Nov - 23:23:18 10° NW 23:27:56 24° WSW 23:32:24 10° SSW night (unlit)
25 Nov - 12:14:02 10° SSE 12:18:17 24° ESE 12:22:46 10° NE daylight
25 Nov - 13:54:30 10° SW 13:59:54 64° NW 14:05:43 10° NNE daylight
25 Nov - 15:39:15 10° WNW 15:43:14 19° NNW 15:47:21 10° NNE daylight
25 Nov - 17:26:29 10° NNW 17:27:51 11° N 17:29:12 10° N visible
25 Nov - 19:09:15 10° NNW 19:12:38 15° NNE 19:16:01 10° ENE visible
25 Nov - 20:50:46 10° NNW 20:56:24 42° NE 21:01:52 10° ESE visible
25 Nov - 22:33:02 10° NW 22:38:36 43° WSW 22:43:57 10° S night (unlit)
26 Nov - 11:26:55 10° SE 11:29:09 13° E 11:31:26 10° ENE daylight
26 Nov - 13:04:48 10° SSW 13:10:11 76° ESE 13:16:00 10° NE daylight
26 Nov - 14:48:15 10° W 14:52:57 27° NW 14:57:54 10° NNE daylight
26 Nov - 16:35:01 10° NW 16:37:12 12° NNW 16:39:25 10° N daylight
26 Nov - 18:19:46 10° N 18:22:06 12° NNE 18:24:26 10° NE visible
26 Nov - 20:01:15 10° NNW 20:06:19 28° NE 20:11:17 10° E visible
26 Nov - 21:43:08 10° NW 21:49:05 76° WSW 21:54:47 10° SSE visible
26 Nov - 23:27:27 10° WNW 23:30:12 14° WSW 23:32:54 10° SW night (unlit)
27 Nov - 12:15:39 10° S 12:20:41 42° ESE 12:26:05 10° NE daylight
27 Nov - 13:57:39 10° WSW 14:02:51 41° NW 14:08:24 10° NNE daylight
27 Nov - 15:43:28 10° NW 15:46:39 15° NNW 15:49:55 10° NNE daylight
27 Nov - 17:30:02 10° N 17:31:28 11° N 17:32:55 10° NNE visible
27 Nov - 19:11:48 10° NNW 19:16:04 20° NNE 19:20:16 10° ENE visible
27 Nov - 20:53:26 10° NNW 20:59:22 65° NE 21:05:04 10° SE visible
27 Nov - 22:36:18 10° NW 22:41:03 25° WSW 22:45:36 10° SSW night (unlit)
28 Nov - 11:27:14 10° SSE 11:31:23 23° ESE 11:35:47 10° ENE daylight
28 Nov - 13:07:31 10° SW 13:12:57 67° NW 13:18:48 10° NNE daylight
28 Nov - 14:52:08 10° WNW 14:56:14 20° NNW 15:00:28 10° NNE daylight
28 Nov - 16:39:23 10° NNW 16:40:49 11° N 16:42:15 10° N daylight
28 Nov - 18:22:21 10° NNW 18:25:38 15° NNE 18:28:55 10° NE visible
28 Nov - 20:03:51 10° NNW 20:09:27 40° NE 20:14:52 10° ESE visible
28 Nov - 21:46:04 10° NW 21:51:42 46° WSW 21:57:04 10° S visible
29 Nov - 10:40:20 10° ESE 10:42:16 12° E 10:44:15 10° E daylight
29 Nov - 12:17:52 10° SSW 12:23:16 72° ESE 12:29:05 10° NE daylight
29 Nov - 14:01:12 10° W 14:05:59 28° NW 14:11:00 10° NNE daylight
29 Nov - 15:47:54 10° NW 15:50:11 12° NNW 15:52:30 10° N daylight
29 Nov - 17:32:51 10° N 17:35:05 12° NNE 17:37:19 10° NE visible
29 Nov - 19:14:21 10° NNW 19:19:21 27° NE 19:24:14 10° E visible
29 Nov - 20:56:12 10° NW 21:02:10 80° WSW 21:07:51 10° SSE visible
29 Nov - 22:40:20 10° WNW 22:43:19 14° WSW 22:46:15 10° SW night (unlit)
